Wind_Speed
9 7 11 11 6 3 7 6 5 2 4 6 6 6 7 13 16 19 24 26 25 25 26 24 24 22 19 22 23 25 25 23 21 17 15 13 11 9 7 6 4 5 8 7
7 10 10 7 5 7 4 5 4 2 3 6 3 3 4 11 13 18 23 23 25 24 23 24 25 24 23 24 25 27 26 24 19 17 13 12 11 8 6 8 5 7 9 8
12 9 10 7 8 8 5 5 4 3 1 1 1 0 4 1 5 11 16 20 22 24 26 24 25 26 27 27 28 28 27 25 20 17 15 14 11 10 9 8 6 7 7 8
9 7 12 9 9 7 9 7 4 3 2 3 3 3 7 6 4 3 9 17 20 24 24 25 26 27 28 31 30 30 28 27 24 20 18 17 14 12 11 8 6 3 5 7
5 11 11 9 7 7 3 5 6 3 4 2 4 2 6 5 7 7 8 11 18 20 24 27 28 29 31 30 31 31 31 29 28 25 22 17 18 13 10 9 8 6 4 4
4 3 2 2 3 10 10 6 4 3 2 6 3 2 5 6 9 11 10 6 14 20 26 25 26 27 32 30 33 34 33 32 30 28 25 23 19 17 15 13 12 10 6 4
4 4 2 5 6 5 7 8 5 6 5 5 3 5 5 7 11 11 14 13 11 13 24 30 29 29 33 35 31 34 36 34 31 30 29 26 22 21 19 16 14 13 11 7
5 6 5 10 3 2 11 10 5 11 9 7 0 8 5 7 11 14 15 17 15 14 20 31 36 34 36 35 37 34 34 35 33 31 30 27 23 20 23 20 17 15 12 9
4 4 1 7 7 3 5 6 2 5 1 9 5 6 4 11 15 19 21 21 22 21 13 25 28 30 32 38 37 38 35 36 37 32 30 29 25 22 22 21 20 18 14 11
2 5 6 4 1 10 3 3 5 2 9 10 4 4 5 12 16 17 23 27 26 25 13 9 17 23 26 29 33 35 35 37 37 36 32 29 27 25 21 22 25 20 18 15
2 1 3 1 7 8 2 2 3 1 2 6 7 5 5 9 10 14 21 24 25 28 25 18 5 11 18 30 33 32 34 34 36 41 39 34 29 27 24 22 26 26 20 20
4 3 5 4 2 4 7 4 1 5 5 2 0 5 4 9 13 15 19 23 25 30 30 23 16 7 4 7 21 30 29 30 33 36 41 40 35 30 29 25 24 25 28 23
1 3 4 2 3 1 3 4 3 1 1 4 6 6 8 12 15 18 18 20 24 28 32 30 24 16 7 5 11 15 19 23 25 31 34 38 40 37 33 30 25 24 25 27
5 3 2 2 4 2 1 2 4 2 3 7 2 13 7 11 11 15 18 19 21 23 28 32 31 27 22 9 3 14 15 19 19 22 27 32 34 37 37 34 31 28 26 27
3 4 4 6 5 1 1 2 1 1 3 3 14 10 8 9 11 12 13 17 18 22 24 26 28 29 29 21 14 2 11 17 19 21 21 25 27 28 31 36 37 34 32 29
2 5 4 3 3 1 1 1 5 3 4 7 14 10 10 10 9 12 14 15 17 18 19 21 23 25 26 27 25 15 10 6 15 20 25 26 26 26 26 27 30 34 35 35
2 6 4 4 3 2 4 4 4 6 4 3 10 7 10 9 9 10 10 12 13 15 17 19 19 21 22 21 22 24 17 8 7 13 18 20 25 28 28 27 27 29 31 32
6 5 1 4 5 5 4 2 3 11 7 7 11 8 7 4 1 3 8 11 11 13 15 17 17 18 18 18 16 17 21 22 10 8 13 17 22 23 25 28 29 31 31 32
2 4 3 4 7 2 4 6 7 6 5 4 7 6 2 3 2 9 3 10 13 14 14 15 15 16 17 17 17 17 13 17 21 16 9 12 21 27 26 25 27 28 29 31
3 2 3 3 4 6 4 8 7 5 6 13 7 3 2 6 4 5 7 14 17 17 18 17 18 18 16 16 18 17 16 12 10 15 19 19 11 16 24 27 26 21 25 29
2 1 7 5 5 2 6 12 9 7 4 13 7 4 2 2 3 11 14 15 16 19 20 22 23 21 20 18 17 19 18 18 13 9 11 16 20 17 17 22 23 20 18 23
6 6 3 2 5 7 17 9 6 8 12 11 7 6 4 3 5 9 12 14 17 20 23 22 25 26 26 25 21 20 20 19 19 17 9 11 13 18 18 15 22 21 21 24
5 3 3 6 3 2 14 2 9 9 10 10 9 7 3 4 7 10 14 16 18 18 19 22 24 28 28 27 26 26 23 21 23 20 21 14 9 12 22 16 12 20 26 25
5 5 2 3 6 6 11 7 5 5 5 8 7 6 5 7 10 14 16 19 20 21 22 23 24 26 30 28 29 30 30 24 23 25 22 23 18 13 17 26 16 16 20 29
1 10 6 4 5 2 10 14 11 10 8 10 9 8 9 11 14 16 19 20 22 24 26 26 25 26 30 31 31 31 30 28 26 25 26 23 24 24 17 23 23 17 19 22
11 6 6 5 9 7 3 8 10 13 12 12 10 11 12 12 15 18 21 21 23 26 28 27 27 29 29 30 31 30 29 27 26 24 24 24 25 26 25 22 26 22 23 22
Wind_Direction
158 182 191 179 188 135 130 129 109 74 162 204 240 256 206 178 188 194 194 194 193 193 196 199 201 203 203 197 189 184 183 180 181 188 190 195 196 190 200 190 163 148 163 153
155 199 186 192 187 153 145 144 118 54 49 223 278 294 335 189 194 192 190 194 197 195 194 199 201 208 206 201 194 192 188 190 193 199 195 196 193 186 183 181 170 160 169 154
179 178 165 172 167 174 153 193 163 126 358 157 230 88 355 109 189 188 191 197 199 197 197 199 203 211 214 211 207 203 201 200 200 201 193 191 193 193 183 179 168 164 165 158
193 155 167 178 178 191 202 199 182 169 222 162 296 143 52 341 232 238 190 203 204 206 204 202 205 211 216 216 216 214 213 213 211 211 204 200 208 202 191 184 180 173 157 167
144 162 171 191 196 179 205 169 193 188 185 224 175 217 10 55 57 345 231 225 218 217 214 210 209 213 218 220 223 222 221 222 222 220 220 214 214 217 206 193 194 200 178 185
81 68 66 185 151 189 147 102 82 99 179 201 119 268 39 22 351 346 344 326 232 219 217 217 217 218 223 228 229 227 227 227 228 226 227 228 226 225 219 211 203 206 209 209
106 53 56 26 149 144 191 176 151 179 191 186 98 100 49 24 11 358 345 336 310 253 225 217 216 215 225 228 230 229 230 230 230 229 229 232 233 233 236 233 222 210 213 219
153 157 20 358 23 147 183 203 201 184 189 160 181 141 81 50 25 17 10 351 338 295 242 222 217 217 225 229 232 234 229 229 230 229 230 229 235 238 235 237 234 222 214 217
137 96 31 48 32 314 147 197 22 108 75 185 127 102 182 36 25 23 16 11 7 352 250 219 221 218 218 229 231 233 234 231 231 230 230 231 232 236 235 234 227 228 223 221
103 126 22 6 313 48 16 95 171 202 167 177 126 124 64 14 14 16 15 11 14 21 39 201 220 221 220 225 232 235 237 239 237 232 231 233 234 237 240 237 230 232 227 224
35 332 57 19 39 19 17 108 58 95 333 183 161 123 22 50 28 28 24 17 20 32 42 52 85 223 225 231 237 237 238 242 241 237 235 233 235 237 239 242 236 235 233 228
21 74 64 88 53 347 37 56 359 231 178 63 19 112 47 67 44 35 39 31 30 44 49 58 64 118 166 204 236 239 244 244 245 241 239 238 238 238 240 242 240 238 238 236
34 38 127 161 212 161 48 33 46 60 283 181 195 134 90 69 45 34 43 37 35 39 53 56 59 62 63 212 216 222 235 239 242 250 247 244 243 240 240 241 244 241 240 238
86 72 337 300 69 46 180 28 29 339 225 151 69 138 95 66 52 34 36 42 42 40 42 52 50 48 52 57 279 240 234 236 242 242 250 251 248 246 245 245 244 246 244 243
53 98 93 75 72 3 335 322 349 86 94 300 145 117 98 87 79 59 45 42 39 39 37 35 45 45 46 41 39 28 247 234 238 242 241 247 251 252 251 248 248 248 248 247
22 126 137 101 10 343 180 105 138 134 92 92 126 105 120 109 92 73 59 46 36 30 25 23 19 35 39 41 36 22 21 260 245 246 244 245 247 247 247 247 248 251 250 250
84 143 176 152 6 185 227 171 134 110 79 149 169 112 143 99 75 56 57 52 35 21 15 12 8 7 14 25 36 33 25 353 269 270 258 252 251 251 251 249 247 247 245 247
139 123 94 137 157 218 74 76 155 112 91 104 116 117 108 98 104 109 56 40 23 7 1 360 357 356 355 355 10 35 35 26 350 296 289 268 249 248 251 253 251 249 247 246
306 149 131 191 206 25 185 185 166 182 172 169 150 139 121 344 276 176 61 4 347 340 337 335 338 340 343 342 333 347 17 40 32 19 320 269 251 250 246 246 251 255 252 247
85 71 227 174 216 218 103 156 147 156 226 188 186 162 21 352 247 115 338 320 317 319 319 318 318 321 324 329 328 319 329 354 24 20 14 4 321 271 255 252 254 261 264 261
152 92 214 201 239 244 155 151 150 197 122 160 166 177 204 264 288 300 315 318 316 314 311 305 303 305 305 308 316 315 311 311 327 344 348 4 4 340 282 252 245 244 237 245
180 177 193 196 226 244 155 140 202 115 137 164 179 188 206 252 299 316 325 326 325 319 312 307 300 295 293 295 296 300 302 307 296 307 319 330 353 339 335 300 255 248 247 248
211 217 193 212 234 75 175 95 139 151 162 184 187 191 204 278 307 315 319 322 323 322 319 314 306 294 286 288 289 286 291 296 299 285 292 298 297 311 323 326 336 254 257 260
210 189 237 215 190 206 191 192 183 187 185 187 186 200 257 281 300 307 310 312 316 317 316 314 308 300 288 285 280 280 284 285 286 293 280 288 293 292 291 310 324 323 291 256
168 163 188 248 249 275 239 229 225 223 229 218 225 253 272 285 297 305 306 306 308 310 311 309 302 298 293 287 281 277 277 281 277 280 285 282 284 290 291 293 305 308 303 277
187 177 183 213 204 186 166 198 213 227 237 228 244 262 276 281 291 300 300 300 304 309 309 305 300 298 294 291 283 278 272 273 275 273 278 281 283 286 287 286 286 289 298 295
Height
1509 1509 1510 1509 1507 1507 1508 1510 1513 1512 1512 1516 1513 1514 1518 1524 1527 1531 1536 1538 1543 1547 1552 1556 1559 1563 1567 1570 1572 1576 1580 1583 1586 1590 1592 1595 1597 1599 1601 1603 1604 1605 1606 1608
1510 1508 1507 1507 1510 1509 1509 1511 1515 1514 1513 1515 1516 1516 1517 1520 1523 1527 1531 1537 1542 1546 1551 1554 1558 1562 1566 1569 1573 1576 1579 1583 1586 1589 1592 1595 1597 1599 1601 1602 1604 1605 1606 1608
1503 1502 1505 1506 1510 1510 1512 1512 1516 1515 1515 1515 1515 1519 1518 1522 1525 1527 1531 1536 1541 1544 1548 1552 1556 1560 1564 1568 1572 1575 1579 1582 1585 1589 1591 1594 1597 1599 1600 1602 1603 1604 1606 1608
1500 1500 1502 1506 1507 1507 1514 1511 1512 1515 1517 1519 1517 1521 1524 1523 1526 1531 1535 1538 1539 1542 1545 1549 1553 1556 1560 1564 1569 1573 1577 1581 1585 1588 1590 1592 1596 1598 1599 1601 1603 1604 1606 1607
1500 1499 1502 1505 1504 1506 1510 1509 1512 1514 1516 1519 1520 1518 1532 1525 1531 1534 1535 1537 1540 1541 1544 1546 1549 1553 1557 1562 1566 1571 1575 1579 1583 1586 1589 1592 1594 1597 1599 1601 1602 1604 1606 1607
1499 1500 1502 1501 1503 1504 1508 1512 1516 1518 1517 1524 1520 1518 1536 1537 1541 1534 1534 1534 1536 1537 1538 1542 1547 1551 1554 1558 1562 1567 1571 1575 1580 1583 1586 1590 1592 1595 1597 1600 1601 1603 1605 1607
1500 1504 1506 1506 1503 1507 1507 1510 1524 1529 1528 1523 1526 1521 1546 1541 1541 1540 1536 1533 1532 1532 1534 1537 1541 1544 1548 1553 1557 1562 1566 1571 1576 1580 1583 1586 1590 1593 1596 1599 1600 1601 1604 1606
1504 1515 1508 1510 1509 1504 1505 1503 1510 1529 1530 1520 1527 1533 1549 1544 1543 1540 1536 1532 1528 1525 1525 1528 1532 1538 1542 1548 1553 1557 1561 1566 1572 1576 1580 1583 1586 1589 1593 1596 1599 1601 1603 1605
1508 1515 1513 1514 1513 1513 1510 1509 1514 1517 1530 1514 1523 1537 1539 1540 1541 1539 1537 1533 1526 1519 1514 1521 1529 1534 1537 1542 1547 1553 1558 1562 1567 1572 1576 1580 1583 1586 1588 1592 1595 1599 1602 1604
1512 1515 1517 1515 1514 1513 1509 1518 1514 1512 1528 1524 1535 1538 1542 1544 1542 1540 1537 1532 1528 1520 1515 1521 1526 1532 1536 1540 1545 1550 1554 1557 1562 1567 1571 1576 1579 1583 1586 1589 1592 1595 1598 1601
1513 1509 1519 1516 1526 1529 1518 1516 1520 1514 1520 1514 1528 1541 1547 1551 1550 1547 1544 1540 1534 1528 1524 1523 1525 1530 1536 1537 1540 1544 1549 1553 1557 1562 1567 1571 1575 1579 1583 1585 1588 1592 1595 1598
1521 1518 1527 1531 1532 1532 1529 1529 1527 1509 1526 1526 1512 1546 1551 1552 1552 1550 1548 1545 1540 1534 1531 1529 1528 1529 1531 1537 1540 1543 1546 1549 1552 1556 1561 1566 1571 1575 1579 1581 1584 1588 1591 1594
1522 1528 1528 1532 1529 1530 1530 1531 1531 1530 1524 1523 1513 1544 1553 1553 1554 1553 1551 1549 1545 1541 1536 1533 1532 1532 1532 1535 1537 1539 1543 1547 1549 1551 1556 1561 1565 1569 1573 1577 1580 1583 1586 1589
1524 1532 1529 1517 1528 1533 1533 1533 1533 1528 1520 1527 1527 1544 1550 1555 1556 1556 1554 1552 1550 1548 1544 1541 1538 1537 1536 1536 1537 1537 1539 1542 1545 1548 1551 1554 1558 1563 1567 1572 1575 1578 1581 1584
1526 1533 1535 1538 1537 1536 1536 1536 1535 1531 1532 1526 1532 1546 1554 1557 1558 1559 1558 1556 1554 1552 1550 1547 1543 1542 1540 1538 1536 1537 1538 1539 1542 1544 1547 1549 1553 1557 1560 1564 1568 1572 1575 1578
1533 1537 1538 1540 1540 1538 1537 1536 1535 1535 1536 1535 1536 1551 1556 1558 1559 1560 1559 1558 1556 1555 1554 1551 1549 1545 1542 1540 1539 1537 1536 1537 1540 1540 1542 1545 1547 1549 1552 1555 1559 1563 1567 1570
1532 1536 1537 1539 1544 1540 1539 1535 1536 1540 1541 1537 1536 1550 1556 1558 1560 1560 1561 1560 1560 1558 1556 1554 1552 1550 1545 1543 1540 1539 1538 1537 1538 1538 1540 1541 1542 1544 1546 1549 1551 1553 1557 1561
1533 1535 1542 1539 1542 1542 1537 1539 1539 1541 1545 1544 1547 1552 1555 1557 1559 1561 1561 1560 1561 1560 1557 1555 1553 1551 1549 1547 1543 1540 1540 1538 1536 1531 1533 1536 1535 1538 1540 1541 1542 1545 1548 1550
1535 1533 1541 1537 1537 1540 1538 1539 1539 1536 1549 1549 1548 1552 1554 1555 1555 1559 1559 1558 1558 1558 1558 1555 1553 1551 1548 1547 1545 1542 1539 1538 1538 1537 1536 1533 1531 1533 1534 1534 1536 1537 1539 1541
1537 1536 1532 1541 1533 1528 1529 1537 1539 1540 1538 1546 1549 1550 1552 1552 1548 1551 1557 1556 1555 1555 1553 1552 1550 1549 1547 1545 1543 1541 1539 1536 1534 1534 1532 1531 1527 1527 1529 1529 1529 1529 1531 1533
1537 1538 1533 1532 1529 1525 1530 1536 1539 1539 1537 1544 1548 1550 1551 1552 1554 1554 1553 1553 1552 1550 1549 1547 1546 1545 1543 1542 1540 1538 1537 1535 1531 1530 1530 1529 1523 1524 1526 1524 1523 1523 1524 1528
1532 1535 1538 1539 1534 1530 1531 1537 1534 1536 1541 1544 1546 1548 1550 1550 1550 1550 1549 1548 1546 1544 1542 1542 1540 1539 1538 1537 1536 1535 1533 1532 1529 1527 1523 1522 1520 1526 1524 1519 1518 1518 1519 1520
1534 1532 1531 1531 1525 1531 1533 1533 1535 1537 1539 1542 1544 1545 1546 1547 1548 1547 1546 1544 1543 1541 1538 1536 1534 1532 1532 1531 1529 1528 1527 1527 1525 1524 1523 1522 1521 1520 1523 1518 1513 1512 1514 1515
1532 1533 1531 1531 1526 1529 1531 1532 1534 1536 1538 1540 1542 1543 1544 1544 1544 1543 1542 1541 1539 1537 1534 1531 1528 1525 1523 1523 1522 1520 1519 1520 1519 1518 1517 1517 1514 1513 1517 1514 1507 1507 1509 1508
1529 1531 1529 1528 1528 1528 1528 1529 1532 1533 1535 1537 1539 1541 1541 1541 1539 1538 1538 1537 1534 1531 1528 1525 1522 1519 1515 1514 1513 1513 1511 1512 1511 1511 1510 1511 1511 1511 1505 1506 1504 1501 1502 1501
1521 1522 1523 1519 1519 1522 1524 1526 1528 1531 1532 1534 1536 1537 1537 1537 1536 1534 1532 1531 1529 1526 1522 1518 1515 1512 1509 1506 1503 1503 1504 1503 1504 1504 1505 1504 1503 1503 1500 1499 1499 1494 1493 1493